EW5291 Weather Reports


Display with metric or nautical units.
time (UTC)temp
F
wind
direction
speed
MPH
gust
MPH
rain 1hr
in
rain 24hr
in
rain mn
in
humidity
%
barometer
mb
20260904181510 83 190 0.0 2.0 0.00 0.01 0.01 51 1009.3
20260904181503 83 191 0.0 2.0 0.00 0.01 0.01 51 1009.2
20260904181003 83 191 0.0 2.0 0.00 0.01 0.01 49 1009.1
20260904180503 82 191 0.0 2.0 0.00 0.01 0.01 48 1009.1
20260904180009 81 190 0.0 1.0 0.00 0.01 0.01 49 1009.1
20260904180003 82 191 0.0 1.0 0.00 0.01 0.01 49 1009.1
20260904175503 82 191 0.0 5.0 0.00 0.01 0.01 49 1009.2
20260904175004 82 191 0.0 5.0 0.00 0.01 0.01 50 1009.2
20260904174511 82 190 0.0 3.0 0.00 0.01 0.01 43 1009.1
20260904174503 83 191 0.0 2.0 0.00 0.01 0.01 43 1009.2
20260904174003 82 191 0.0 4.0 0.00 0.01 0.01 52 1009.1
20260904173503 82 191 0.0 4.0 0.00 0.01 0.01 56 1009.1
20260904173006 81 190 0.0 3.0 0.00 0.01 0.01 59 1009.1
20260904173004 81 191 0.0 2.0 0.00 0.01 0.01 59 1009.1
20260904172503 81 0 0.0 0.0 0.00 0.01 0.01 54 1009.2
20260904172003 81 0 0.0 0.0 0.00 0.01 0.01 55 1009.4
20260904171504 81 191 0.0 3.0 0.00 0.01 0.01 52 1009.3
20260904171502 81 190 0.0 0.0 0.00 0.01 0.01 52 1009.3
20260904171003 81 191 0.0 3.0 0.00 0.01 0.01 50 1009.4
20260904170503 81 191 0.0 3.0 0.00 0.01 0.01 57 1009.4
20260904170003 80 191 0.0 2.0 0.00 0.01 0.01 58 1009.5
20260904165503 80 0 0.0 0.0 0.00 0.01 0.01 56 1009.5
20260904165004 81 0 0.0 0.0 0.00 0.01 0.01 55 1009.6
20260904164503 82 0 0.0 0.0 0.00 0.01 0.01 53 1009.6
20260904164003 82 191 0.0 1.0 0.00 0.01 0.01 55 1009.6
20260904163503 82 191 0.0 4.0 0.00 0.01 0.01 54 1009.6
20260904163008 82 190 0.0 4.0 0.00 0.01 0.01 49 1009.6
20260904163004 82 191 0.0 4.0 0.00 0.01 0.01 49 1009.6
20260904162503 82 191 0.0 3.0 0.00 0.01 0.01 54 1009.6
20260904162003 82 191 0.0 3.0 0.00 0.01 0.01 52 1009.7
20260904161503 82 191 0.0 4.0 0.00 0.01 0.01 53 1009.9
20260904160503 82 191 0.0 4.0 0.00 0.01 0.01 52 1010.1
20260904160003 81 191 1.0 4.0 0.00 0.01 0.01 53 1009.9
20260904155503 81 191 0.0 4.0 0.01 0.01 0.01 53 1009.9
20260904155004 81 190 0.0 4.0 0.01 0.01 0.01 56 1010.0
20260904154507 80 190 0.0 11.0 0.01 0.01 0.01 57 1010.1
20260904153503 81 191 0.0 2.0 0.01 0.01 0.01 55 1010.3
20260904153003 81 191 0.0 5.0 0.01 0.01 0.01 57 1010.3
20260904152504 80 191 1.0 5.0 0.01 0.01 0.01 57 1010.3
20260904152004 80 190 0.0 2.0 0.01 0.01 0.01 58 1010.3
20260904151504 80 191 0.0 2.0 0.01 0.01 0.01 60 1010.3
20260904151004 80 191 0.0 2.0 0.01 0.01 0.01 58 1010.3
20260904150504 80 0 0.0 0.0 0.01 0.01 0.01 60 1010.3
20260904150004 79 190 0.0 2.0 0.01 0.01 0.01 62 1010.4
20260904145503 79 191 0.0 4.0 0.00 0.00 0.00 61 1010.3
20260904144503 79 191 0.0 3.0 0.00 0.00 0.00 63 1010.3
20260904144003 78 191 0.0 3.0 0.00 0.00 0.00 63 1010.3
20260904143504 78 191 0.0 3.0 0.00 0.00 0.00 64 1010.4
20260904143010 77 190 0.0 3.0 0.00 0.00 0.00 66 1010.4
20260904143004 77 190 0.0 3.0 0.00 0.00 0.00 66 1010.5
20260904142504 77 191 0.0 3.0 0.00 0.00 0.00 65 1010.5
20260904142004 77 191 0.0 3.0 0.00 0.00 0.00 66 1010.5
20260904141504 76 0 0.0 0.0 0.00 0.00 0.00 66 1010.5
20260904141502 76 190 0.0 0.0 0.00 0.00 0.00 66 1010.5
20260904141003 76 0 0.0 0.0 0.00 0.00 0.00 71 1010.6
20260904140503 75 191 0.0 2.0 0.00 0.00 0.00 69 1010.5
20260904140003 74 190 0.0 2.0 0.00 0.00 0.00 73 1010.6
20260904135503 74 191 0.0 2.0 0.00 0.00 0.00 77 1010.6
20260904135003 74 191 0.0 2.0 0.00 0.00 0.00 77 1010.5
20260904134503 73 0 0.0 0.0 0.00 0.00 0.00 77 1010.6
20260904134004 73 0 0.0 0.0 0.00 0.00 0.00 79 1010.5
20260904133504 72 0 0.0 0.0 0.00 0.00 0.00 81 1010.6
20260904133004 72 0 0.0 0.0 0.00 0.00 0.00 82 1010.5
20260904133002 71 190 0.0 0.0 0.00 0.00 0.00 82 1010.5
20260904132003 71 190 0.0 1.0 0.00 0.00 0.00 82 1010.3
20260904131504 71 190 0.0 0.0 0.00 0.00 0.00 82 1010.4
20260904131003 71 0 0.0 0.0 0.00 0.00 0.00 82 1010.4
20260904130503 70 0 0.0 0.0 0.00 0.00 0.00 82 1010.3
20260904130004 69 190 0.0 0.0 0.00 0.00 0.00 82 1010.3
20260904125503 69 0 0.0 0.0 0.00 0.00 0.00 82 1010.3
20260904125003 69 0 0.0 0.0 0.00 0.00 0.00 82 1010.3
20260904124504 68 0 0.0 0.0 0.00 0.00 0.00 82 1010.2
20260904123011 67 190 0.0 0.0 0.00 0.00 0.00 82 1010.4
20260904121509 65 190 0.0 0.0 0.00 0.00 0.00 82 1010.4
20260904120014 65 190 0.0 0.0 0.00 0.00 0.00 82 1010.4
20260904114509 64 190 0.0 0.0 0.00 0.00 0.00 82 1010.2
20260904113007 64 190 0.0 0.0 0.00 0.00 0.00 82 1010.1
20260904111511 64 190 0.0 0.0 0.00 0.00 0.00 82 1009.9
20260904110006 64 190 0.0 0.0 0.00 0.00 0.00 82 1009.9
20260904104512 63 190 0.0 0.0 0.00 0.00 0.00 82 1010.0
20260904103006 64 190 0.0 0.0 0.00 0.00 0.00 82 1009.9
20260904101503 64 190 0.0 0.0 0.00 0.00 0.00 82 1009.8
20260904100004 64 190 0.0 0.0 0.00 0.01 0.00 82 1009.8
20260904094506 64 190 0.0 0.0 0.00 0.01 0.00 82 1009.7
20260904093001 64 190 0.0 0.0 0.00 0.01 0.00 82 1009.7
20260904091600 64 190 0.0 0.0 0.00 0.01 0.00 82 1009.7
20260904090059 65 190 0.0 0.0 0.00 0.01 0.00 82 1009.6
20260904084559 65 190 0.0 0.0 0.00 0.01 0.00 82 1009.5
20260904083058 65 190 0.0 0.0 0.00 0.01 0.00 82 1009.4
20260904081636 64 190 0.0 0.0 0.00 0.01 0.00 82 1009.4
20260904080056 64 190 0.0 0.0 0.00 0.02 0.00 82 1009.4
20260904074607 64 190 0.0 0.0 0.00 0.02 0.00 82 1009.5
20260904073103 64 190 0.0 0.0 0.00 0.02 0.00 82 1009.9
20260904071549 64 190 0.0 0.0 0.00 0.02 0.00 82 1010.2
20260904070104 64 190 0.0 0.0 0.00 0.06 0.00 82 1010.2
20260904064548 64 190 0.0 0.0 0.00 0.06 0.00 82 1010.2
20260904063054 64 190 0.0 0.0 0.00 0.06 0.00 82 1010.2
20260904061545 64 190 0.0 0.0 0.00 0.06 0.00 82 1010.2
20260904060044 65 190 0.0 0.0 0.00 0.06 0.00 82 1010.4
20260904054541 65 190 0.0 0.0 0.00 0.06 0.00 82 1010.5
20260904053041 65 190 0.0 0.0 0.00 0.06 0.00 82 1010.7
20260904051538 65 190 0.0 0.0 0.00 0.06 0.00 82 1010.9
20260904050037 65 190 0.0 0.0 0.00 0.06 0.00 82 1011.1
20260904044534 65 190 0.0 0.0 0.00 0.06 0.00 82 1011.1
20260904043035 66 190 0.0 0.0 0.00 0.06 0.00 82 1011.2
20260904041530 66 190 0.0 0.0 0.00 0.06 0.00 82 1011.1
20260904040029 66 190 0.0 0.0 0.00 0.06 0.06 82 1011.2
20260904034531 67 190 0.0 0.0 0.00 0.06 0.06 82 1011.4
20260904033006 67 190 0.0 0.0 0.00 0.06 0.06 82 1011.5
20260904032506 67 0 0.0 0.0 0.00 0.06 0.06 82 1011.5
20260904031506 68 0 0.0 0.0 0.00 0.06 0.06 82 1011.4
20260904031006 68 0 0.0 0.0 0.00 0.06 0.06 82 1011.4
20260904030506 68 0 0.0 0.0 0.00 0.06 0.06 82 1011.5
20260904030006 68 0 0.0 0.0 0.00 0.06 0.06 82 1011.4
20260904030004 67 190 0.0 0.0 0.00 0.06 0.06 82 1011.5
20260904025506 68 0 0.0 0.0 0.00 0.06 0.06 82 1011.5
20260904024505 68 190 0.0 0.0 0.00 0.06 0.06 82 1011.7
20260904024006 68 0 0.0 0.0 0.00 0.06 0.06 82 1011.5
20260904023506 68 0 0.0 0.0 0.00 0.06 0.06 82 1011.6
20260904023006 68 0 0.0 0.0 0.00 0.06 0.06 82 1011.5
20260904022506 68 0 0.0 0.0 0.00 0.06 0.06 82 1011.6
20260904022006 69 0 0.0 0.0 0.00 0.06 0.06 82 1011.5
20260904021506 69 0 0.0 0.0 0.00 0.06 0.06 82 1011.5
20260904021006 69 0 0.0 0.0 0.00 0.06 0.06 82 1011.6
20260904020006 68 190 0.0 0.0 0.00 0.06 0.06 82 1011.9
20260904015505 69 0 0.0 0.0 0.00 0.06 0.06 82 1011.9
20260904015005 69 0 0.0 0.0 0.00 0.06 0.06 82 1011.8
20260904014505 69 190 0.0 0.0 0.00 0.06 0.06 82 1011.9
20260904014006 70 0 0.0 0.0 0.00 0.06 0.06 82 1011.7
20260904013506 70 0 0.0 0.0 0.00 0.06 0.06 82 1011.7
20260904013009 69 190 0.0 0.0 0.00 0.06 0.06 82 1011.9
20260904013005 70 0 0.0 0.0 0.00 0.06 0.06 82 1011.8
20260904012506 70 0 0.0 0.0 0.00 0.06 0.06 82 1011.8
20260904012006 70 0 0.0 0.0 0.00 0.06 0.06 82 1011.9
20260904011506 70 0 0.0 0.0 0.00 0.06 0.06 82 1011.9
20260904011504 70 190 0.0 0.0 0.00 0.06 0.06 82 1011.9
20260904011006 70 0 0.0 0.0 0.00 0.06 0.06 82 1011.9
20260904010506 70 0 0.0 0.0 0.00 0.06 0.06 82 1011.8
20260904010006 71 0 0.0 0.0 0.00 0.06 0.06 82 1011.9
20260904005506 71 0 0.0 0.0 0.00 0.06 0.06 82 1011.9
20260904005005 71 0 0.0 0.0 0.00 0.06 0.06 82 1011.8
20260904004511 71 190 0.0 0.0 0.00 0.06 0.06 82 1011.8
20260904004506 71 0 0.0 0.0 0.00 0.06 0.06 82 1011.8
20260904004006 71 0 0.0 0.0 0.00 0.06 0.06 82 1011.7
20260904003006 71 0 0.0 0.0 0.00 0.06 0.06 82 1011.6
20260904002506 72 0 0.0 0.0 0.00 0.06 0.06 82 1011.5
20260904002006 72 0 0.0 0.0 0.00 0.06 0.06 82 1011.2
20260904001506 71 190 0.0 0.0 0.00 0.06 0.06 82 1011.3
20260904001005 72 0 0.0 0.0 0.00 0.06 0.06 82 1011.2
20260904000009 72 190 0.0 0.0 0.00 0.06 0.06 82 1011.1
20260904000006 72 0 0.0 0.0 0.00 0.06 0.06 82 1011.0
20260903235506 72 0 0.0 0.0 0.00 0.06 0.06 82 1011.0
20260903235006 72 0 0.0 0.0 0.00 0.06 0.06 82 1010.9
20260903234506 72 0 0.0 0.0 0.00 0.06 0.06 82 1011.1
20260903234504 72 190 0.0 0.0 0.00 0.06 0.06 82 1011.1
20260903234005 72 0 0.0 0.0 0.00 0.06 0.06 81 1011.0
20260903233506 73 0 0.0 0.0 0.00 0.06 0.06 81 1011.0
20260903233006 73 0 0.0 0.0 0.00 0.06 0.06 81 1011.0
20260903233004 73 190 0.0 0.0 0.00 0.06 0.06 81 1011.1
20260903232006 74 0 0.0 0.0 0.00 0.06 0.06 81 1010.9
20260903231506 74 0 0.0 0.0 0.00 0.06 0.06 81 1010.9
20260903230031 74 190 0.0 0.0 0.00 0.06 0.06 81 1011.1
20260903224538 74 190 0.0 0.0 0.00 0.06 0.06 80 1011.0
20260903223028 75 190 0.0 0.0 0.00 0.06 0.06 80 1011.1
20260903221527 75 190 0.0 0.0 0.00 0.06 0.06 80 1011.0
20260903220025 76 190 0.0 0.0 0.00 0.06 0.06 79 1011.2
20260903214534 76 190 0.0 0.0 0.00 0.06 0.06 79 1011.4
20260903213033 76 190 0.0 0.0 0.00 0.06 0.06 78 1011.4
20260903211523 77 190 0.0 0.0 0.00 0.06 0.06 75 1011.2
20260903210023 78 190 0.0 0.0 0.00 0.06 0.06 74 1011.1
20260903204522 78 190 0.0 0.0 0.00 0.06 0.06 74 1011.3
20260903203106 79 190 0.0 0.0 0.00 0.06 0.06 73 1011.2
20260903202503 79 0 0.0 0.0 0.00 0.06 0.06 73 1011.3
20260903202003 79 0 0.0 0.0 0.00 0.06 0.06 72 1011.3
20260903201604 78 190 0.0 0.0 0.00 0.06 0.06 72 1011.3
20260903201504 79 0 0.0 0.0 0.00 0.06 0.06 72 1011.2
20260903201004 79 0 0.0 0.0 0.00 0.06 0.06 72 1011.2
20260903200503 79 0 0.0 0.0 0.00 0.06 0.06 69 1011.2
20260903200003 79 0 0.0 0.0 0.00 0.06 0.06 71 1011.2
20260903195503 80 0 0.0 0.0 0.00 0.06 0.06 70 1011.3
20260903195004 80 0 0.0 0.0 0.00 0.06 0.06 70 1011.3
20260903194602 79 190 0.0 0.0 0.00 0.06 0.06 69 1011.5
20260903194503 80 0 0.0 0.0 0.00 0.06 0.06 69 1011.5
20260903193504 80 0 0.0 0.0 0.00 0.06 0.06 69 1011.7
20260903193102 79 190 0.0 0.0 0.00 0.06 0.06 68 1011.8
20260903193003 80 0 0.0 0.0 0.00 0.06 0.06 68 1011.7
20260903192504 80 0 0.0 0.0 0.00 0.06 0.06 65 1011.7
20260903192003 81 0 0.0 0.0 0.00 0.06 0.06 66 1011.7
20260903191602 80 190 0.0 0.0 0.00 0.06 0.06 65 1011.7
20260903191503 81 0 0.0 0.0 0.00 0.06 0.06 65 1011.6
20260903190503 81 0 0.0 0.0 0.00 0.06 0.06 68 1011.7
20260903190108 81 190 0.0 2.0 0.00 0.06 0.06 67 1011.8
20260903190003 81 191 0.0 2.0 0.00 0.06 0.06 65 1011.8
20260903185504 81 191 0.0 2.0 0.00 0.06 0.06 63 1011.8
20260903185003 81 0 0.0 0.0 0.00 0.06 0.06 66 1011.7
20260903184602 81 190 0.0 2.0 0.00 0.06 0.06 66 1011.9
20260903184503 81 190 0.0 2.0 0.00 0.06 0.06 67 1011.8
20260903184003 82 191 0.0 2.0 0.00 0.06 0.06 62 1011.9
20260903183503 82 190 0.0 2.0 0.00 0.06 0.06 64 1011.9
20260903183102 81 190 0.0 2.0 0.00 0.06 0.06 68 1012.0
20260903183004 81 190 0.0 2.0 0.00 0.06 0.06 66 1011.9
20260903182003 80 191 0.0 2.0 0.00 0.06 0.06 69 1012.1